sat.trackr.live / text

‹ back to catalog

STARLINK-32270

NORAD 60364 · 2024-138K

PAYLOAD ACTIVE UNKNOWN

§ Identity

Operator
Country
US
Launch date
2024-08-04
Launch site
AFWTR
Launch vehicle
Mass (kg)
RCS (m²)

Purposes: comms

External: N2YO · Heavens-Above · Gunter

§ Orbital elements

Epoch: 2026-09-21T20:06:43.862688Z

Period
94.01 min
Inclination
53.1586°
Eccentricity
0.0001271
Mean motion
15.31689866 rev/d
Perigee alt
469.9 km
Apogee alt
471.6 km
Semi-major
6,848.9 km
B*
7.7051e-5
RAAN
117.4636°
Arg perigee
96.9061°
Mean anomaly
263.2085°
Rev number
12,057

§ Raw data

STARLINK-322701 60364U 24138K   26264.83800767  .00002026  00000+0  77051-4 0  99992 60364  53.1586 117.4636 0001271  96.9061 263.2085 15.31689866120573

JSON: /api/v1/satellites/60364 · /tle

For live sub-satellite position, see the globe view (requires WebGL).

§ Visibility from observer

Set your observer location to see the next 7 days of passes ≥ 10°. The values pass through the URL so the page stays shareable.

No JS? Fill the form by hand. The geolocation button needs JavaScript.